{"data":{"norad_id":62214,"intl_designator":"2024-229Y","name":"STARLINK-32666","alt_names":[],"object_type":"PAYLOAD","status":"ACTIVE","operator":null,"country":"US","launch_date":"2024-12-04","launch_site_code":"AFETR","launch_vehicle":null,"mission":null,"orbit_class":"UNKNOWN","rcs_meters":null,"size_class":null,"mass_kg":null,"dimensions":null,"purposes":["comms"],"wikipedia_slug":null,"has_3d_model":false,"image_url":null,"decayed_at":null,"tle_current":{"epoch":"2026-05-25T04:05:18.698784Z","epoch_age_seconds":50586,"freshness":"FRESH","line1":"1 62214U 24229Y   26145.17035531  .00015358  00000+0  56624-3 0  9994","line2":"2 62214  42.9985 199.1665 0000868 231.4318 128.6456 15.27591538 82250","mean_motion":15.27591538,"eccentricity":8.68e-5,"inclination_deg":42.9985,"raan_deg":199.1665,"arg_perigee_deg":231.4318,"mean_anomaly_deg":128.6456,"bstar":0.00056624,"rev_number":8225,"period_min":94.266036710659,"perigee_km":482.41899938003,"apogee_km":483.61009528865,"semimajor_km":6861.1515473343,"source":"CELESTRAK","updated_at":"2026-05-25T13:38:19.612457Z"}}}